FW8437 Weather Reports


Display with metric or nautical units.
time (UTC)temp
F
wind
direction
speed
MPH
gust
MPH
rain 1hr
in
rain 24hr
in
rain mn
in
humidity
%
barometer
mb
20260506163414 60 359 1.0 2.0 0.00 0.00 0.00 81 1021.9
20260506162430 60 359 1.0 3.0 0.00 0.00 0.00 82 1022.0
20260506161413 60 359 1.0 3.0 0.00 0.00 0.00 83 1021.8
20260506160413 59 359 1.0 3.0 0.00 0.00 0.00 84 1021.8
20260506155424 58 359 0.0 2.0 0.00 0.00 0.00 85 1021.9
20260506154417 57 359 1.0 3.0 0.00 0.00 0.00 85 1021.9
20260506153417 57 359 1.0 3.0 0.00 0.00 0.00 85 1021.8
20260506152419 57 359 1.0 2.0 0.00 0.00 0.00 86 1021.7
20260506151418 57 359 0.0 2.0 0.00 0.00 0.00 87 1021.8
20260506150414 56 359 0.0 1.0 0.00 0.00 0.00 88 1021.8
20260506145413 56 359 1.0 3.0 0.00 0.00 0.00 89 1021.7
20260506144412 56 359 0.0 0.0 0.00 0.00 0.00 89 1021.7
20260506143429 55 359 0.0 1.0 0.00 0.00 0.00 90 1021.6
20260506142428 55 359 0.0 1.0 0.00 0.00 0.00 90 1021.5
20260506141422 55 359 0.0 0.0 0.00 0.00 0.00 90 1021.5
20260506140423 55 359 0.0 0.0 0.00 0.00 0.00 90 1021.2
20260506135425 55 359 0.0 0.0 0.00 0.00 0.00 90 1021.2
20260506134419 54 359 0.0 0.0 0.00 0.00 0.00 89 1021.1
20260506133418 55 359 0.0 0.0 0.00 0.00 0.00 89 1021.1
20260506132413 55 359 0.0 0.0 0.00 0.00 0.00 89 1021.0
20260506131411 55 359 0.0 0.0 0.00 0.00 0.00 88 1021.0
20260506130412 55 359 0.0 0.0 0.00 0.00 0.00 88 1020.8
20260506125412 55 359 0.0 0.0 0.00 0.00 0.00 88 1020.8
20260506124415 55 359 0.0 0.0 0.00 0.00 0.00 88 1020.8
20260506123415 55 359 0.0 0.0 0.00 0.00 0.00 87 1020.8
20260506122425 55 359 0.0 0.0 0.00 0.00 0.00 87 1020.8
20260506121424 55 359 0.0 1.0 0.00 0.00 0.00 87 1020.8
20260506120419 55 359 0.0 1.0 0.00 0.00 0.00 87 1020.7
20260506115419 55 359 0.0 1.0 0.00 0.00 0.00 87 1020.7
20260506114418 55 359 0.0 0.0 0.00 0.00 0.00 87 1020.5
20260506113414 55 359 0.0 0.0 0.00 0.00 0.00 87 1020.5
20260506112427 55 359 0.0 0.0 0.00 0.00 0.00 87 1020.4
20260506111420 55 359 0.0 0.0 0.00 0.00 0.00 87 1020.3
20260506110420 55 359 0.0 0.0 0.00 0.00 0.00 87 1020.3
20260506105421 55 359 0.0 0.0 0.00 0.00 0.00 86 1020.2
20260506104417 55 359 0.0 0.0 0.00 0.00 0.00 86 1020.2
20260506103417 55 359 0.0 0.0 0.00 0.00 0.00 86 1020.1
20260506102418 55 359 0.0 1.0 0.00 0.00 0.00 86 1020.0
20260506101438 55 359 0.0 1.0 0.00 0.00 0.00 85 1019.9
20260506100418 55 359 0.0 1.0 0.00 0.00 0.00 85 1019.9
20260506095418 55 359 0.0 1.0 0.00 0.02 0.00 85 1020.1
20260506094411 55 359 0.0 1.0 0.00 0.02 0.00 85 1020.1
20260506093433 55 359 0.0 1.0 0.00 0.02 0.00 84 1020.1
20260506092434 55 359 0.0 2.0 0.00 0.02 0.00 84 1020.2
20260506091434 55 359 0.0 2.0 0.00 0.02 0.00 84 1020.1
20260506090425 55 359 0.0 1.0 0.00 0.02 0.00 84 1020.1
20260506085426 55 359 0.0 1.0 0.00 0.06 0.00 84 1020.2
20260506084428 55 359 0.0 2.0 0.00 0.06 0.00 84 1020.1
20260506083449 55 359 1.0 2.0 0.00 0.06 0.00 84 1020.1
20260506082423 55 359 1.0 2.0 0.00 0.06 0.00 84 1020.1
20260506081422 55 359 0.0 1.0 0.00 0.06 0.00 84 1020.2
20260506080421 55 359 0.0 2.0 0.00 0.06 0.00 84 1020.2
20260506073413 55 359 0.0 3.0 0.00 0.11 0.00 83 1019.9
20260506072416 55 359 0.0 2.0 0.00 0.11 0.00 83 1019.9
20260506071414 55 359 0.0 3.0 0.00 0.11 0.00 83 1019.8
20260506070438 55 359 1.0 5.0 0.00 0.11 0.00 83 1019.7
20260506062434 56 359 0.0 4.0 0.00 0.15 1.10 83 1019.3
20260506061430 56 359 0.0 2.0 0.00 0.15 1.10 84 1019.3
20260506060429 56 359 1.0 2.0 0.00 0.15 1.10 84 1019.2
20260506051416 56 359 0.0 2.0 0.00 0.20 1.10 87 1019.0
20260506044438 56 359 1.0 3.0 0.00 0.26 1.10 87 1018.7
20260506043413 56 359 0.0 5.0 0.00 0.26 1.10 87 1018.5
20260506042429 56 359 1.0 5.0 0.00 0.26 1.10 87 1018.5
20260506041455 56 359 0.0 3.0 0.00 0.26 1.10 86 1018.4
20260506040434 56 359 0.0 3.0 0.00 0.26 1.10 86 1018.3
20260506035431 57 359 0.0 2.0 0.00 0.28 1.10 85 1018.2
20260506034425 57 359 0.0 2.0 0.00 0.28 1.10 85 1018.1
20260506033424 57 359 0.0 2.0 0.00 0.28 1.10 85 1017.9
20260506032422 57 359 1.0 3.0 0.00 0.28 1.10 84 1017.6
20260506031415 57 359 1.0 3.0 0.00 0.28 1.10 84 1017.5
20260506030417 58 359 1.0 4.0 0.00 0.28 1.10 84 1017.4
20260506025414 58 359 2.0 5.0 0.00 0.29 1.10 83 1017.3
20260506024416 58 359 3.0 8.0 0.00 0.29 1.10 82 1017.3
20260506023413 59 359 2.0 6.0 0.00 0.29 1.10 82 1017.3
20260506022436 59 359 2.0 5.0 0.00 0.29 1.10 81 1017.3
20260506021430 59 359 1.0 4.0 0.00 0.29 1.10 80 1017.1
20260506020425 60 359 1.0 5.0 0.00 0.29 1.10 80 1016.9
20260506015421 60 359 1.0 6.0 0.00 0.29 1.10 79 1016.8
20260506014421 60 359 1.0 5.0 0.00 0.29 1.10 79 1016.7
20260506013421 60 359 2.0 4.0 0.00 0.29 1.10 79 1016.7
20260506012442 60 359 2.0 9.0 0.00 0.29 1.10 78 1016.7
20260506011419 61 359 3.0 8.0 0.00 0.29 1.10 78 1016.7
20260506010419 61 359 1.0 6.0 0.00 0.29 1.10 78 1016.7
20260506005417 61 359 1.0 6.0 0.00 0.29 1.10 77 1016.7
20260506004413 61 359 2.0 8.0 0.00 0.29 1.10 77 1016.6
20260506003413 62 359 2.0 8.0 0.00 0.29 1.10 77 1016.5
20260506002414 62 359 3.0 9.0 0.00 0.29 1.10 76 1016.5
20260506001430 62 359 1.0 6.0 0.00 0.29 1.10 77 1016.4
20260506000431 61 359 3.0 8.0 0.00 0.29 1.10 77 1016.3
20260505235431 61 359 2.0 5.0 0.00 0.29 1.10 78 1016.3
20260505234426 61 359 2.0 8.0 0.00 0.29 1.10 78 1016.4
20260505233426 62 359 3.0 10.0 0.00 0.29 1.10 79 1016.4
20260505232426 62 359 2.0 6.0 0.00 0.29 1.10 78 1016.5
20260505231420 62 359 3.0 8.0 0.00 0.29 1.10 78 1016.4
20260505230420 63 359 3.0 9.0 0.00 0.29 1.10 77 1016.4
20260505225419 63 359 0.0 6.0 0.00 0.29 1.10 77 1016.4
20260505224420 63 359 1.0 4.0 0.00 0.29 1.10 77 1016.4
20260505223420 63 359 3.0 6.0 0.00 0.29 1.10 75 1016.5
20260505222416 63 359 3.0 9.0 0.00 0.29 1.10 76 1016.5
20260505221436 63 359 3.0 5.0 0.00 0.29 1.10 76 1016.4
20260505220414 64 359 1.0 8.0 0.00 0.29 1.10 77 1016.5
20260505215429 63 359 2.0 9.0 0.00 0.29 1.10 77 1016.5
20260505214454 63 359 1.0 6.0 0.00 0.29 1.10 77 1016.6
20260505213428 63 359 3.0 8.0 0.00 0.29 1.10 78 1016.7
20260505212430 63 359 1.0 4.0 0.00 0.29 1.10 78 1016.7
20260505211420 63 359 2.0 6.0 0.00 0.29 1.10 78 1016.7
20260505210415 63 359 3.0 5.0 0.00 0.29 1.10 77 1016.7
20260505205414 62 359 3.0 5.0 0.00 0.29 1.10 78 1016.7
20260505204414 63 359 1.0 9.0 0.00 0.29 1.10 78 1016.8
20260505203426 62 359 2.0 8.0 0.00 0.29 1.10 78 1016.7
20260505202449 63 359 2.0 6.0 0.00 0.29 1.10 76 1016.7
20260505201428 62 359 2.0 4.0 0.00 0.29 1.10 76 1016.8
20260505200426 62 359 1.0 6.0 0.00 0.29 1.10 77 1016.9
20260505195423 62 359 0.0 3.0 0.00 0.29 1.10 77 1016.9
20260505194424 62 359 2.0 5.0 0.00 0.29 1.10 78 1016.9
20260505193417 61 359 1.0 5.0 0.00 0.29 1.10 77 1017.0
20260505192418 61 359 3.0 6.0 0.00 0.29 1.10 76 1017.1
20260505191418 61 359 2.0 5.0 0.00 0.29 1.10 77 1016.9
20260505190416 61 359 2.0 4.0 0.00 0.29 1.10 78 1016.9
20260505185429 61 359 2.0 5.0 0.00 0.29 1.10 79 1016.9
20260505184425 60 359 2.0 4.0 0.00 0.29 1.10 79 1016.8
20260505183451 60 359 2.0 4.0 0.00 0.29 1.10 80 1016.8
20260505182429 60 359 1.0 4.0 0.00 0.29 1.10 82 1017.0
20260505181424 59 359 1.0 4.0 0.00 0.29 1.10 83 1016.9
20260505180423 58 359 1.0 3.0 0.00 0.29 1.10 84 1016.9
20260505175424 57 359 1.0 4.0 0.00 0.29 1.10 83 1016.8
20260505174422 57 359 2.0 4.0 0.00 0.29 1.10 85 1016.6
20260505173418 57 359 2.0 4.0 0.00 0.29 1.10 86 1016.5
20260505172431 57 359 1.0 3.0 0.00 0.29 1.10 88 1016.5
20260505171431 56 359 1.0 4.0 0.00 0.29 1.10 89 1016.4
20260505170427 56 359 0.0 2.0 0.00 0.29 1.10 91 1016.6
20260505165427 55 359 1.0 3.0 0.00 0.29 1.10 92 1016.5
20260505164427 55 359 0.0 3.0 0.00 0.29 1.10 92 1016.4